GFSCGP_con_3kmhel_276.txt.gz
Helicity
33 42 31 44 66 67 78 90 92 88 96 148 128 63 121 182 199 219 226 200 157 129 79 74 49 31 38 51 41 45 50 53 67 76 64 63 64 73 91 106 102 100 106 106
37 25 39 58 56 61 78 95 91 78 86 114 92 100 84 186 180 222 231 212 162 124 81 67 49 42 46 45 44 49 57 62 72 74 69 88 90 90 108 119 118 104 110 127
49 33 50 46 44 58 77 107 100 89 72 78 41 56 77 114 143 210 200 205 168 118 88 73 61 49 52 45 44 54 58 66 70 64 74 77 79 90 93 99 118 123 123 117
39 43 43 37 40 64 77 92 94 87 65 87 60 86 101 113 104 149 196 222 150 110 90 81 67 50 51 47 48 56 64 68 64 63 75 73 82 97 112 140 153 132 125 123
21 37 36 29 38 59 86 91 111 90 83 75 73 98 111 128 99 93 170 178 122 105 94 86 67 53 48 43 56 58 62 62 63 67 77 74 80 103 117 117 109 130 129 116
44 49 44 42 48 60 87 101 117 86 88 97 94 98 105 153 156 129 171 168 132 117 99 78 58 57 51 47 51 55 55 60 57 67 68 76 76 80 95 102 113 132 144 137
32 41 47 48 50 50 67 79 111 117 133 144 128 101 115 125 128 144 178 186 148 116 102 79 75 63 50 44 47 61 59 58 58 65 65 69 72 85 96 108 126 126 140 148
16 3 30 34 39 45 53 76 128 166 178 139 117 100 104 120 145 138 203 209 165 117 94 81 79 66 53 52 54 63 53 51 49 58 67 71 72 89 103 110 116 133 150 147
31 14 34 58 50 39 44 64 88 178 141 137 119 81 85 110 134 157 232 241 178 120 96 86 76 72 63 54 51 54 49 55 57 57 69 71 72 74 85 89 115 128 125 118
43 28 36 39 55 73 58 84 87 88 173 177 125 101 92 98 95 124 173 187 165 112 98 90 80 70 66 59 54 57 56 58 56 57 65 74 77 84 86 91 92 101 110 107
75 57 31 36 17 33 56 59 84 108 140 213 181 120 103 113 109 165 137 167 188 141 112 100 80 61 65 56 52 52 46 43 38 43 59 64 68 79 86 96 100 106 109 103
72 52 35 32 46 66 71 73 96 115 117 180 227 114 98 79 104 140 171 168 174 141 116 100 91 72 71 62 48 51 50 47 43 49 60 64 74 83 84 95 99 104 109 113
47 73 55 38 44 56 35 55 113 162 159 194 243 138 87 60 99 139 231 194 176 165 132 99 101 75 77 73 52 52 47 49 49 53 60 65 69 75 82 89 89 99 108 115
69 66 51 40 14 25 44 68 116 162 177 181 283 166 202 130 133 191 217 214 179 180 166 126 101 72 68 74 62 55 57 57 53 58 61 63 63 68 75 89 93 94 98 101
55 32 49 50 47 67 67 109 161 244 260 201 133 223 180 145 163 216 230 224 196 151 149 141 116 77 60 69 63 52 57 59 63 61 56 57 58 64 72 85 85 85 97 104
91 33 31 34 57 33 48 69 157 215 237 180 150 57 162 94 97 135 216 245 204 149 136 130 99 84 76 75 72 59 57 55 56 59 59 50 49 56 64 70 70 71 85 90
45 35 13 -26 35 32 -17 61 172 227 230 226 168 133 126 101 88 79 149 228 201 172 142 144 126 108 95 77 73 64 48 33 37 39 38 38 41 52 57 60 64 68 75 83
69 82 57 -12 29 1 16 58 60 119 105 194 99 119 101 86 75 69 108 212 169 157 152 128 125 103 88 76 67 55 53 45 36 30 28 29 35 45 50 56 54 66 79 77
168 118 88 32 39 8 -24 38 41 62 61 161 166 116 124 120 73 37 121 154 170 172 162 144 140 114 106 106 83 65 61 57 49 37 29 29 33 44 50 57 60 74 79 84
223 206 151 114 49 -16 14 35 4 -14 76 31 119 109 196 204 86 66 82 159 123 139 175 192 168 137 130 94 101 88 67 67 66 66 51 40 46 55 61 64 67 81 83 86
155 203 163 187 111 53 42 88 41 45 13 49 40 92 190 123 105 57 71 104 119 145 175 206 213 183 140 127 115 86 71 59 56 64 68 70 76 82 84 81 93 90 81 78
90 84 85 180 158 44 99 142 62 29 27 21 12 59 100 91 72 71 69 102 147 170 174 225 232 181 156 151 142 85 64 48 57 61 56 63 81 91 92 95 89 96 98 88
163 147 56 57 40 65 10 44 36 19 7 11 24 31 80 97 77 81 75 95 138 170 215 198 229 206 176 163 149 110 60 71 70 67 62 65 77 80 93 103 98 104 113 110
126 158 148 124 53 47 43 29 40 70 73 49 36 45 105 98 114 102 108 114 148 175 199 222 225 211 201 169 146 105 109 94 94 82 63 56 69 76 79 79 86 101 108 116
116 132 109 119 57 43 57 67 90 93 95 103 87 80 83 120 107 145 143 142 149 178 192 228 229 191 176 203 164 142 139 140 120 95 89 77 76 81 82 86 91 97 97 116
128 140 105 42 19 14 38 17 -36 21 74 103 148 148 120 138 137 170 151 162 192 196 207 212 194 188 183 195 182 187 182 170 157 129 119 112 104 106 112 109 94 91 77 72

GFSCGP_con_3kmhel_279.txt.gz
Helicity
27 28 17 27 43 66 93 95 98 89 84 108 96 64 120 145 140 201 222 195 163 120 72 77 66 46 39 50 42 49 45 48 57 51 47 54 56 54 57 62 61 69 64 63
22 10 25 55 47 61 82 95 96 80 79 102 85 82 51 128 134 214 240 203 156 122 98 84 67 47 46 41 49 53 55 55 55 55 64 66 70 67 66 66 62 62 60 64
31 14 34 28 36 54 78 102 111 104 72 78 44 45 46 69 91 162 203 187 141 117 104 90 70 49 50 54 53 48 48 51 55 58 68 64 72 74 74 64 65 75 81 82
32 26 26 16 21 56 69 86 108 118 76 85 43 67 67 92 72 133 189 207 142 122 98 82 71 59 56 49 42 42 43 47 54 61 66 64 68 80 91 87 88 84 82 87
25 26 25 8 10 38 63 84 109 101 96 81 64 67 93 96 81 111 163 198 134 112 106 96 75 66 50 44 36 38 46 51 54 65 60 63 65 81 89 87 73 73 74 80
50 45 42 35 33 35 70 85 93 77 96 76 84 61 107 136 122 132 145 197 147 119 105 85 74 58 54 48 43 51 44 45 46 58 59 63 68 67 71 73 84 88 83 81
38 48 57 48 35 28 37 50 61 94 107 121 120 85 97 100 110 132 162 184 164 121 112 104 84 72 59 51 46 50 47 45 44 54 68 70 68 74 79 77 93 84 85 84
21 21 37 35 38 21 25 37 73 107 136 133 107 90 81 100 93 91 140 174 179 131 104 102 82 70 66 60 55 54 47 43 48 51 64 75 72 87 87 88 93 99 103 98
39 36 42 55 50 50 30 26 54 112 109 119 100 82 65 63 75 78 177 238 182 147 118 101 82 74 58 51 46 46 43 44 50 51 61 70 72 78 84 82 96 106 99 97
41 39 50 49 51 67 50 64 46 55 111 126 126 95 90 65 58 75 142 183 168 137 121 91 85 83 70 54 45 42 44 37 36 43 55 64 64 74 82 93 90 88 94 93
81 74 49 54 25 30 60 49 68 77 89 125 136 115 96 77 68 100 95 147 182 170 145 101 86 82 70 54 54 62 61 51 41 42 46 56 58 64 75 88 83 87 93 90
65 64 38 50 56 66 56 56 66 54 54 109 150 92 94 75 65 69 74 136 150 153 137 110 90 83 87 82 60 56 48 38 31 30 42 50 57 60 73 77 73 78 85 95
18 68 59 42 57 72 48 52 98 111 105 119 137 82 92 90 63 70 68 132 156 158 154 111 106 96 82 82 72 63 54 39 25 25 35 40 43 51 58 65 70 74 81 85
59 54 58 46 23 33 49 61 88 136 127 132 241 144 199 153 112 111 106 136 167 189 179 153 105 100 75 64 67 56 44 33 21 22 30 41 46 51 57 60 67 72 73 78
58 35 54 52 47 78 75 111 140 205 237 168 132 208 182 153 159 149 141 171 182 179 166 163 125 96 71 65 52 42 42 43 39 38 34 37 39 50 56 60 65 67 69 75
96 36 12 35 65 54 52 63 157 206 249 163 143 151 201 125 121 123 136 194 180 163 169 150 122 105 91 67 61 59 59 63 61 55 47 41 41 48 54 53 52 60 66 67
62 66 22 -30 -1 5 -27 36 154 189 191 204 168 230 201 57 75 70 86 154 180 155 163 172 152 120 105 84 61 60 65 73 65 59 53 54 54 55 59 60 60 60 68 69
112 117 80 2 -0 -9 -8 47 64 104 129 276 219 175 156 50 48 35 80 146 143 142 142 129 145 115 95 79 64 57 54 68 70 65 61 59 65 66 64 68 69 67 74 76
204 174 104 42 26 14 -10 15 14 11 61 66 193 135 138 96 39 5 106 143 135 175 164 135 143 138 126 112 97 98 71 58 59 58 55 55 63 64 68 66 67 69 72 72
241 235 179 125 39 -20 -14 35 -7 -62 9 16 73 86 160 127 58 74 48 129 103 106 153 172 149 159 163 140 135 132 109 88 66 55 53 49 49 50 54 60 61 71 74 65
144 165 151 141 94 67 35 87 25 15 -0 59 36 44 97 77 75 50 53 61 73 110 136 170 205 174 158 204 204 149 129 102 79 64 61 53 44 46 54 56 68 63 63 71
161 116 86 156 98 -18 108 121 47 29 18 17 10 15 63 61 32 37 42 57 96 128 149 168 222 190 174 207 233 172 130 111 109 99 91 73 59 62 64 72 71 70 74 79
238 240 158 125 48 88 5 30 32 26 91 62 14 -9 30 46 59 39 39 62 84 127 173 179 200 226 207 201 209 181 114 169 146 129 112 101 88 87 86 85 86 86 95 100
188 198 197 182 97 70 34 5 25 28 48 111 105 41 35 45 41 59 71 81 103 136 165 197 220 213 228 211 186 132 172 174 175 151 139 129 112 103 104 104 102 103 110 117
175 214 201 200 127 61 34 6 23 43 51 69 97 178 140 76 55 71 98 108 118 143 176 208 221 207 183 233 194 166 185 191 173 157 152 158 152 132 117 116 112 120 117 134
240 233 236 130 43 72 43 8 -29 -13 4 13 36 61 94 127 90 103 94 141 157 165 200 201 187 189 191 206 189 188 207 206 180 163 153 153 165 156 144 129 114 124 106 106

GFSCGP_con_3kmhel_285.txt.gz
Helicity
32 -9 -5 33 28 15 24 39 53 96 80 55 60 57 74 150 152 191 191 168 157 124 94 91 74 55 39 33 30 28 27 23 23 30 35 35 40 45 47 49 44 43 42 39
7 -0 60 36 21 19 31 37 65 106 74 62 32 58 53 103 168 184 177 162 147 117 108 93 71 48 33 18 22 20 11 13 16 20 20 28 35 41 47 55 56 49 49 49
20 61 48 18 2 3 36 35 58 74 64 70 41 38 75 85 148 190 165 135 120 121 113 92 72 41 22 20 18 11 11 14 17 22 29 35 50 53 59 56 56 52 50 52
41 48 17 6 -16 19 -1 60 55 54 52 29 39 33 92 147 131 170 179 163 112 110 89 77 61 41 29 25 28 30 23 18 17 25 34 41 43 47 53 50 57 58 58 60
54 26 14 2 47 34 44 25 38 41 54 30 68 24 128 127 123 167 172 180 117 104 103 91 81 66 48 49 44 37 24 25 27 26 34 40 36 48 52 56 57 64 69 76
72 48 46 60 39 40 39 12 39 32 44 57 128 33 89 87 82 138 176 166 143 102 100 86 72 68 58 47 39 39 35 33 32 34 39 43 37 38 48 55 61 69 73 82
41 39 52 43 16 24 17 11 11 34 47 53 99 47 37 120 106 104 126 152 152 126 107 100 93 73 55 57 50 43 43 41 43 42 51 50 42 38 44 49 61 61 71 80
50 33 28 38 40 48 30 39 41 11 37 44 69 71 75 99 102 101 104 112 158 151 122 108 88 81 74 71 65 48 44 44 42 43 47 52 50 44 48 57 61 65 68 72
59 64 58 63 47 31 39 39 49 37 46 39 51 69 84 92 72 82 93 106 123 166 163 127 100 89 76 72 73 66 60 47 40 44 47 54 51 50 46 50 56 59 58 67
88 56 47 55 39 43 45 42 39 26 32 12 50 43 56 81 50 71 81 101 106 138 164 156 120 101 85 79 80 71 56 55 56 57 56 52 47 44 45 50 51 51 55 59
71 77 55 44 32 67 48 36 30 50 56 52 31 66 76 75 58 64 61 84 117 142 148 155 142 124 104 99 106 102 90 74 62 59 54 53 45 42 41 46 45 47 50 52
60 74 56 83 83 82 81 82 49 55 62 61 54 52 42 101 73 24 65 86 110 129 160 146 141 146 139 122 112 102 85 72 65 58 55 49 40 37 39 42 43 45 49 49
58 54 70 47 42 56 59 69 58 97 87 68 74 48 43 72 100 83 38 83 109 133 160 173 159 156 153 138 119 98 81 72 68 66 61 55 45 42 40 41 44 46 47 48
66 68 53 74 111 82 61 53 18 39 74 65 105 63 14 18 57 90 96 83 113 137 155 169 175 164 153 145 144 132 106 96 88 77 67 63 53 52 50 47 51 54 55 59
79 38 26 42 58 54 49 40 58 97 101 64 59 31 61 63 7 -14 91 80 116 156 160 169 174 168 164 155 142 133 125 122 113 98 85 78 69 66 62 62 63 66 69 71
114 102 78 17 32 45 39 35 42 68 42 56 46 47 57 18 61 34 35 67 111 122 142 153 154 160 179 172 154 143 139 132 130 115 99 94 91 87 85 81 81 83 82 87
131 125 92 40 93 53 32 31 52 105 101 63 58 47 45 37 51 35 47 31 52 87 113 148 178 174 179 201 190 165 143 142 141 130 120 122 117 110 107 101 100 102 96 102
154 119 168 92 87 67 76 77 63 2 30 18 41 53 63 42 20 30 27 43 35 58 76 116 162 182 176 190 211 191 181 159 153 140 127 126 126 115 113 110 108 112 112 120
205 170 188 175 93 75 61 83 93 59 75 38 -7 20 50 41 38 83 94 43 41 41 57 69 123 166 194 227 225 224 218 191 175 150 133 130 126 123 127 122 116 118 125 127
260 266 223 213 193 153 177 129 74 49 61 98 54 72 90 58 75 97 99 82 69 39 78 82 113 146 182 226 248 240 234 218 203 169 155 142 132 126 133 125 121 120 119 123
239 243 240 188 210 140 122 123 110 111 113 100 56 58 41 55 57 80 73 63 61 39 45 83 106 148 159 216 266 245 211 210 179 188 182 159 155 144 133 124 117 119 115 116
209 165 225 213 257 172 175 190 156 180 165 100 56 59 73 64 62 39 43 49 47 40 43 65 92 118 149 213 242 222 203 173 181 199 195 180 170 162 149 142 129 127 124 122
198 255 177 222 234 194 81 47 20 88 -1 4 41 32 36 52 15 16 43 37 25 28 35 54 71 98 127 183 219 200 172 205 227 216 196 179 177 171 156 157 151 150 143 141
190 198 235 167 153 114 72 -19 37 29 -36 -11 13 30 33 24 35 36 39 58 42 34 33 55 74 93 128 163 189 162 200 226 240 219 200 194 195 189 182 168 165 172 173 166
181 246 175 143 142 114 79 57 38 47 73 56 79 55 54 56 69 70 71 62 50 65 71 74 86 99 118 164 172 158 198 254 238 210 208 210 210 207 203 188 181 176 158 162
283 215 193 151 115 151 118 144 120 112 91 64 36 53 58 30 64 48 58 46 50 53 61 92 94 116 125 152 166 180 203 251 245 218 217 227 225 213 202 194 183 162 143 153

GFSCGP_con_3kmhel_288.txt.gz
Helicity
29 -1 10 74 65 12 -6 21 51 131 122 73 85 83 102 273 225 203 192 196 173 176 128 159 124 74 57 51 50 52 52 50 41 41 40 37 55 62 63 63 57 65 61 60
25 36 61 40 38 19 -1 18 44 90 98 76 38 47 99 277 265 226 171 174 153 161 167 213 146 104 82 59 70 66 69 69 51 49 50 53 54 61 62 70 59 58 56 58
26 55 28 29 21 10 8 40 18 54 59 134 50 32 52 136 238 242 165 114 135 183 202 239 173 117 83 77 110 76 75 57 57 79 57 58 47 61 64 56 65 60 69 70
48 42 36 23 9 47 14 67 32 29 38 72 79 28 73 128 156 231 202 153 121 147 162 181 178 121 92 72 94 85 68 60 64 67 52 59 65 72 69 69 74 67 80 82
45 35 24 15 61 41 56 34 31 30 29 35 116 58 46 218 106 141 182 174 127 128 170 153 197 169 119 128 129 77 79 76 76 69 73 64 62 56 55 61 65 66 76 84
86 62 61 75 47 44 42 23 45 28 51 50 118 116 77 115 91 107 199 172 173 146 195 172 178 178 146 162 140 106 106 89 97 91 76 74 61 53 51 53 62 72 73 83
77 53 62 52 35 34 14 27 29 44 54 44 96 92 92 125 122 130 188 174 200 207 232 230 234 213 178 169 147 120 102 103 108 103 84 83 77 69 58 58 67 70 75 81
5 26 45 47 53 58 37 41 49 28 53 40 73 66 77 155 172 150 145 168 204 208 221 249 247 249 224 196 179 140 132 112 101 105 94 83 79 75 64 62 79 77 79 84
43 64 61 66 70 55 52 43 58 62 57 56 44 43 76 112 105 112 114 146 191 233 240 242 244 240 224 199 188 162 133 118 110 110 102 86 76 72 74 64 76 81 79 88
72 43 60 66 47 49 63 64 62 53 54 28 70 60 48 45 46 96 114 128 130 201 249 269 259 218 183 172 175 163 148 132 115 113 110 89 79 75 79 79 82 82 83 95
67 62 66 61 54 67 69 74 60 79 82 61 49 84 53 33 62 80 50 109 145 165 249 275 285 257 222 190 192 178 169 152 135 133 120 95 93 82 86 85 82 88 99 90
50 60 61 73 98 99 91 92 77 101 85 92 85 50 37 84 89 113 88 123 167 166 208 253 272 293 275 235 205 201 194 182 152 143 135 117 111 105 99 92 89 99 98 94
73 67 98 80 70 69 73 63 69 115 131 94 100 70 57 36 9 54 111 208 238 202 199 217 260 286 298 278 246 210 180 164 159 157 149 139 123 121 106 100 101 107 104 99
114 113 90 121 123 81 70 59 65 93 110 111 161 118 96 72 55 39 89 166 292 291 246 222 235 262 278 282 272 250 208 181 171 174 157 148 138 127 120 112 109 112 110 110
147 116 83 62 92 97 81 75 113 164 160 172 107 105 79 95 25 5 18 157 282 326 294 254 234 251 265 278 264 256 248 242 221 204 181 148 140 134 130 125 111 114 122 119
162 133 111 68 63 64 117 62 116 168 147 137 107 40 104 43 52 41 53 51 199 285 309 279 250 258 267 286 279 263 265 259 279 246 198 170 154 154 155 139 123 121 131 121
174 155 143 78 77 120 129 116 125 173 204 179 168 145 100 21 28 24 24 72 78 104 226 280 272 267 269 287 307 298 289 288 281 249 217 193 183 180 169 157 142 130 144 134
167 142 171 156 115 162 161 140 98 96 77 141 114 68 66 41 26 13 15 30 53 83 94 199 267 270 264 270 312 317 318 306 274 256 236 219 211 204 185 174 164 142 149 150
225 207 231 187 184 118 61 142 149 128 66 62 80 66 60 48 41 9 49 68 71 63 71 110 201 269 273 282 318 338 329 312 294 258 229 221 234 227 210 191 179 161 161 160
283 277 307 269 221 151 159 150 163 155 125 142 133 102 95 96 91 48 17 31 44 59 51 78 133 237 254 247 313 355 331 322 292 268 241 223 227 230 223 200 183 171 172 167
220 222 245 284 222 185 167 199 184 191 147 127 115 82 80 66 51 57 51 40 36 35 29 60 103 178 210 227 296 315 310 295 261 257 261 247 234 233 219 206 197 191 175 166
286 169 235 283 263 177 204 264 205 163 185 170 124 97 95 65 52 31 32 32 36 29 21 38 59 101 167 223 279 284 274 248 260 268 266 270 252 256 243 229 208 203 192 173
280 339 225 205 171 159 111 145 121 170 201 135 79 52 31 15 -1 19 38 46 32 33 38 45 62 74 125 205 267 256 240 254 268 278 278 271 261 258 258 250 231 218 201 190
254 212 249 194 201 148 148 121 125 118 107 73 43 38 43 41 40 36 56 59 58 51 65 59 90 87 111 171 253 251 247 243 286 295 290 282 270 249 249 242 243 231 209 195
212 226 259 228 176 137 103 117 114 102 122 121 114 119 111 85 66 79 98 90 73 54 64 111 129 157 135 161 219 270 250 262 279 309 304 290 263 238 245 242 253 233 194 201
293 318 316 295 221 161 167 178 180 201 175 123 98 101 87 81 74 79 85 97 83 62 52 85 132 151 170 171 221 275 278 275 314 309 311 293 281 263 259 250 208 186 187 196